Kazan, Russia

4:42 PM MSK on December 13, 2019 (GMT +0300)
Kazan

Weather History for UWKD - October, 2019

Change the Weather History Date:

Tuesday, October 1, 2019

  Actual Average (WUND) Record (WUND)
Temperature  
Mean Temperature 50 °F -  
Max Temperature 53 °F - - (-1)
Min Temperature 48 °F - - (-1)
Degree Days  
Heating Degree Days 14    
Moisture  
Dew Point 47 °F    
Average Humidity 84    
Maximum Humidity 98    
Minimum Humidity 75    
Precipitation  
Precipitation 0.00 in - - ()
Sea Level Pressure  
Sea Level Pressure 29.75 in    
Wind  
Wind Speed 12 mph ()    
Max Wind Speed 22 mph    
Max Gust Speed 34 mph    
Visibility 6.2 miles    
Events Rain    
Averages and records for this station are not official NWS values.
T = Trace of Precipitation, MM = Missing Value Source: Averaged Metar Reports

Daily Weather History Graph

Daily Weather History Graph

Search for Another Location

Airport or City:

Astronomy

Oct. 01, 2019 Rise Set
Actual Time 5:44 AM MSK 5:19 PM MSK
Civil Twilight 5:07 AM MSK 5:56 PM MSK
Nautical Twilight 4:24 AM MSK 6:39 PM MSK
Astronomical Twilight 3:40 AM MSK 7:23 PM MSK
Moon 8:58 AM MSK (10/1) 6:48 PM MSK (10/1)
Length of Visible Light 12h 48m
Length of Day
11h 35m
Waxing Crescent, 10% of the Moon is Illuminated
Oct 1
Waxing Crescent
Oct 5
First Quarter
Oct 14
Full
Oct 21
Last Quarter
Oct 28
New

Hourly Weather History & Observations

Time (MSK) Temp. Dew Point Humidity Pressure Visibility Wind Dir Wind Speed Gust Speed Precip Events Conditions
12:00 AM 50 °F 47 °F 85% 29.86 in 6 mi SSE 4.5 mph - - Rain Light Rain
12:00 AM 50.0 °F 44.6 °F 82% 29.83 in 6.2 mi South 8.9 mph 20.1 mph N/A   Overcast
12:30 AM 50.0 °F 44.6 °F 82% 29.83 in 6.2 mi South 11.2 mph 22.4 mph N/A   Overcast
2:00 AM 51.8 °F 44.6 °F 76% 29.83 in 6.2 mi South 11.2 mph 22.4 mph N/A   Overcast
3:30 AM 50.0 °F 44.6 °F 82% 29.80 in 6.2 mi South 13.4 mph - N/A   Overcast
4:00 AM 50.0 °F 44.6 °F 82% 29.80 in 6.2 mi South 13.4 mph - N/A   Overcast
5:00 AM 50.0 °F 44.6 °F 82% 29.80 in 6.2 mi South 13.4 mph 24.6 mph N/A   Overcast
5:30 AM 50.0 °F 44.6 °F 82% 29.80 in 6.2 mi South 13.4 mph 24.6 mph N/A   Overcast
6:00 AM 49 °F 46 °F 87% 29.82 in 6 mi South 4.5 mph - -   Overcast
6:00 AM 48.2 °F 44.6 °F 87% 29.80 in 6.2 mi South 11.2 mph 22.4 mph N/A Rain Light Rain
6:30 AM 48.2 °F 44.6 °F 87% 29.80 in 5.6 mi South 11.2 mph 22.4 mph N/A Rain Light Rain
7:00 AM 48.2 °F 44.6 °F 87% 29.80 in 6.2 mi South 11.2 mph 22.4 mph N/A   Overcast
7:30 AM 50.0 °F 44.6 °F 82% 29.77 in 6.2 mi South 11.2 mph 22.4 mph N/A   Overcast
9:00 AM 51 °F 46 °F 77% 29.79 in 6 mi South 6.7 mph - -   Partly Cloudy
9:30 AM 51.8 °F 44.6 °F 76% 29.77 in 6.2 mi South 15.7 mph 26.8 mph N/A   Scattered Clouds
10:00 AM 51.8 °F 44.6 °F 76% 29.77 in 6.2 mi South 15.7 mph 26.8 mph N/A   Mostly Cloudy
10:30 AM 51.8 °F 44.6 °F 76% 29.77 in 6.2 mi South 20.1 mph 31.3 mph N/A   Mostly Cloudy
11:00 AM 51.8 °F 44.6 °F 76% 29.77 in 6.2 mi South 15.7 mph 26.8 mph N/A   Mostly Cloudy
11:30 AM 51.8 °F 44.6 °F 76% 29.77 in 6.2 mi South 15.7 mph 26.8 mph N/A   Mostly Cloudy
12:00 PM 52 °F 46 °F 75% 29.78 in 6 mi SSE 6.7 mph - -   Overcast
12:00 PM 51.8 °F 44.6 °F 76% 29.77 in 6.2 mi South 17.9 mph 29.1 mph N/A   Overcast
12:30 PM 51.8 °F 46.4 °F 82% 29.74 in 6.2 mi South 17.9 mph 29.1 mph N/A   Overcast
1:00 PM 51.8 °F 46.4 °F 82% 29.74 in 6.2 mi South 17.9 mph 29.1 mph N/A   Overcast
1:30 PM 51.8 °F 46.4 °F 82% 29.74 in 6.2 mi South 17.9 mph 29.1 mph N/A Rain Light Rain
2:00 PM 51.8 °F 48.2 °F 88% 29.74 in 6.2 mi South 17.9 mph 29.1 mph N/A Rain Light Rain
2:30 PM 51.8 °F 48.2 °F 88% 29.74 in 6.2 mi South 22.4 mph 33.6 mph N/A Rain Light Rain
3:00 PM 52 °F 51 °F 95% 29.75 in 6 mi SSE 6.7 mph - - Rain Light Rain
3:00 PM 51.8 °F 48.2 °F 88% 29.74 in 6.2 mi South 22.4 mph 33.6 mph N/A   Mostly Cloudy
3:30 PM 53.6 °F 48.2 °F 82% 29.74 in 6.2 mi South 22.4 mph 33.6 mph N/A   Mostly Cloudy
4:00 PM 53.6 °F 48.2 °F 82% 29.74 in 6.2 mi South 22.4 mph 33.6 mph N/A   Mostly Cloudy
4:30 PM 53.6 °F 48.2 °F 82% 29.74 in 6.2 mi South 22.4 mph 33.6 mph N/A   Overcast
5:00 PM 53.6 °F 48.2 °F 82% 29.71 in 6.2 mi South 17.9 mph 29.1 mph N/A   Overcast
5:30 PM 53.6 °F 48.2 °F 82% 29.71 in 6.2 mi South 17.9 mph 29.1 mph N/A   Mostly Cloudy
6:00 PM 53 °F 49 °F 84% 29.74 in 6 mi SE 6.7 mph - -  
6:00 PM 51.8 °F 48.2 °F 88% 29.71 in 6.2 mi South 15.7 mph 26.8 mph N/A Rain Light Rain
6:30 PM 51.8 °F 48.2 °F 88% 29.71 in 6.2 mi South 11.2 mph 22.4 mph N/A Rain Light Rain Showers
7:00 PM 51.8 °F 48.2 °F 88% 29.71 in 6.2 mi South 11.2 mph 22.4 mph N/A Rain Light Rain Showers
7:30 PM 51.8 °F 48.2 °F 88% 29.71 in 6.2 mi SSE 11.2 mph 22.4 mph N/A Rain Light Rain Showers
8:00 PM 51.8 °F 50.0 °F 94% 29.71 in 6.2 mi SSE 11.2 mph 22.4 mph N/A Rain Light Rain Showers
8:30 PM 53.6 °F 50.0 °F 88% 29.71 in 6.2 mi South 11.2 mph 22.4 mph N/A Rain Light Rain Showers
9:00 PM 53 °F 53 °F 98% 29.72 in 6 mi SSE 6.7 mph - - Rain Light Rain Showers
9:00 PM 53.6 °F 50.0 °F 88% 29.71 in 6.2 mi South 15.7 mph 26.8 mph N/A Rain Light Rain Showers
9:30 PM 53.6 °F 50.0 °F 88% 29.71 in 6.2 mi South 17.9 mph 29.1 mph N/A Rain Light Rain Showers
10:00 PM 53.6 °F 50.0 °F 88% 29.71 in 6.2 mi South 15.7 mph 26.8 mph N/A Rain Light Rain Showers
10:30 PM 53.6 °F 50.0 °F 88% 29.71 in 6.2 mi South 15.7 mph 26.8 mph N/A Rain Light Rain Showers
11:00 PM 53.6 °F 50.0 °F 88% 29.68 in 6.2 mi South 15.7 mph 26.8 mph N/A Rain Light Rain Showers
11:30 PM 53.6 °F 50.0 °F 88% 29.68 in 6.2 mi South 15.7 mph 26.8 mph N/A Rain Light Rain Showers